Flag for Germany Weather past 2 weeks in Forchheim, Bavaria, Germany

39 °F


Feels Like: 39 °F
Forecast: 27 / 40 °F
Wind: 2 mph from Northwest

Location: Bamberg

Current Time: Nov 26, 2015 at 10:39:23 AM

Latest Report: Nov 26, 2015 at 10:00 AM

Visibility: 4 mi

Pressure: 29.95 "Hg

Humidity: 94%

Dew point: 37 °F

Location of ForchheimLocation

Historic Weather in Forchheim — Graph


Forchheim temperature yesterday

Maximum temperature yesterday: 37 °F (at 3:00 PM)
Minimum temperature yesterday: 32 °F (at 3:00 AM)
Average temperature yesterday: 35 °F

Past Weeks' High & Low Weather Summary

High60 °F (Nov 16, 1:00 PM)100% (Nov 11, 8:00 PM)30.40 "Hg (Nov 11, 8:00 PM)
Low30 °F (Nov 24, 2:00 AM)41% (Nov 16, 1:00 PM)29.41 "Hg (Nov 21, 3:00 PM)
Average45 °F84%30.01 "Hg
* Reported Nov 11 9:00 AM — Nov 26 9:00 AM, Forchheim, Weather by CustomWeather, © 2015

Note: Actual official high and low records may vary slightly from our data, if they occured in-between our weather recording intervals... More about our weather records


Forchheim weather history for previous 24 hours

Time TempWeatherWind HumidityBarometerVisibility
9:00 AM
Thu, Nov 26
37 °FLow clouds.1 mph100%29.93 "Hg2 mi
8:00 AM37 °FLow clouds.No wind100%29.90 "Hg2 mi
7:00 AM37 °FLow clouds.1 mph99%29.88 "Hg2 mi
4:00 AM37 °FLow clouds.2 mph94%29.82 "Hg9 mi
3:00 AM37 °FLow clouds.1 mph96%29.81 "Hg7 mi
2:00 AM36 °FLight rain. Low clouds.2 mph95%29.80 "Hg7 mi
12:00 AM37 °FDrizzle. Low clouds.1 mph100%29.79 "Hg2 mi
11:00 PM
Wed, Nov 25
36 °FLow clouds.1 mph99%29.78 "Hg3 mi
10:00 PM36 °FFog.1 mph99%29.78 "Hg3 mi
9:00 PM36 °FOvercast.2 mph99%29.78 "Hg3 mi
8:00 PM36 °FOvercast.1 mph98%29.77 "Hg3 mi
7:00 PM36 °FLow clouds.1 mph98%29.77 "Hg5 mi
6:00 PM36 °FLight freezing rain. Low clouds.1 mph98%29.76 "Hg4 mi
5:00 PM36 °FLight rain. Low clouds.2 mph97%29.75 "Hg8 mi
4:00 PM37 °FLight freezing rain. Low clouds.2 mph96%29.75 "Hg4 mi
3:00 PM37 °FDrizzle. Low clouds.3 mph93%29.75 "Hg17 mi
2:00 PM37 °FLight rain. Low clouds.2 mph95%29.76 "Hg7 mi
1:00 PM36 °FLight rain. Low clouds.3 mph96%29.78 "Hg4 mi
12:00 PM36 °FLight rain. Low clouds.2 mph96%29.79 "Hg4 mi
11:00 AM35 °FDrizzle. Low clouds.2 mph97%29.82 "Hg2 mi
10:00 AM35 °FOvercast.3 mph97%29.81 "Hg4 mi
Weather by CustomWeather, © 2015

See weather overviewHow to use our weather pages